Location: Kuffner-Sternwarte
(48.2130°N, 16.2960°E)
Time: 18:27:03
(UTC+02:00)

COROT - Pass Details

Date: 19 January 2018
Orbit: 600 x 889 km, 90.0° (Epoch: 21 April)

Event Time Altitude Azimuth Distance (km) Brightness Sun altitude
Exits shadow 03:47:47 12° 110° (ESE) 1,894 8.6 -37.8°
Drops below altitude 10° 03:48:14 10° 115° (ESE) 1,996 8.7 -37.7°
Sets 03:51:23 0° 138° (SE) 2,956 9.4 -37.2°
